Regional Weather Roundup
Issued by NWS Raleigh/Durham, NC

Home | Current Version | Previous Version | Text Only | Print | Product List | Glossary On
Versions: 1 2 3 4 5 6 7 8 9 10 11 12 13 14 15 16 17 18 19 20 21 22 23 24 25 26 27 28
000
ASUS42 KRAH 232210
RWRRAH
NORTH CAROLINA WEATHER ROUNDUP
NATIONAL WEATHER SERVICE RALEIGH NC
600 PM EDT WED AUG 23 2017

NOTE: "FAIR" INDICATES FEW OR NO CLOUDS BELOW 12,000 FEET WITH NO
SIGNIFICANT WEATHER AND/OR OBSTRUCTIONS TO VISIBILITY.

NCZ001-053-055-056-065-067-232300-
WESTERN NORTH CAROLINA

CITY           SKY/WX    TMP DP  RH WIND       PRES   REMARKS
ASHEVILLE      SUNNY     83  60  45 N10       29.94F
JEFFERSON      NOT AVBL
MORGANTON      SUNNY     88  61  40 NW6       29.90F
HICKORY        SUNNY     85  71  63 SE3       29.86F
RUTHERFORDTON  MOSUNNY   86  67  52 NE6       29.87F
MOUNT AIRY     MOSUNNY   87  61  41 NW6       29.89F
BOONE          SUNNY     76  55  47 NW9G16    30.01F
$$

NCZ021-022-025-041-071-084-088-232300-
CENTRAL NORTH CAROLINA

CITY           SKY/WX    TMP DP  RH WIND       PRES   REMARKS
CHARLOTTE      PTSUNNY   85  72  65 N6        29.85F
GREENSBORO     PTSUNNY   83  73  72 S3        29.84F
WINSTON-SALEM  PTSUNNY   86  67  52 CALM      29.86F
RALEIGH-DURHAM LGT RAIN  81  77  88 W3        29.83R
FORT BRAGG     PTSUNNY   77  72  83 NW9       29.80S
FAYETTEVILLE   PTSUNNY   83  75  77 NW8       29.78R
BURLINGTON     MOSUNNY   83  71  67 W6        29.82F
LAURINBURG     MOSUNNY   94  71  47 SW12      29.78F HX 101
$$

NCZ011-015-027-028-043-044-047-080-103-232300-
NORTHEASTERN NORTH CAROLINA

CITY           SKY/WX    TMP DP  RH WIND       PRES   REMARKS
ROCKY MT-WILSO CLOUDY    82  73  74 NW7       29.79F
GREENVILLE     CLOUDY    90  73  58 N6        29.81R HX  98
WASHINGTON     CLOUDY    88  72  59 SE5       29.79R
ELIZABETH CITY TSTM      73  72  96 NW30G45   29.85R FOG
MANTEO         MOSUNNY   82  74  77 S8        29.81R
CAPE HATTERAS  SUNNY     85  79  82 SW10      29.82F HX  98
$$

NCZ078-087-090-091-093-098-101-232300-
SOUTHEASTERN NORTH CAROLINA

CITY           SKY/WX    TMP DP  RH WIND       PRES   REMARKS
LUMBERTON      LGT RAIN  86  78  77 S3        29.77F HX  98
GOLDSBORO      MOSUNNY   91  72  52 W12       29.76F HX  99
KINSTON        PTSUNNY   93  73  52 S9        29.79S HX 102
KENANSVILLE    PTSUNNY   86  75  70 S5        29.77F HX  95
NEW BERN       CLOUDY    88  77  69 S12       29.81R HX 100
CHERRY POINT   PTSUNNY   86  76  71 S10       29.82S HX  96
BEAUFORT       SUNNY     84  80  88 SW16      29.82S HX  97
JACKSONVILLE   LGT RAIN  84  79  84 SW5       29.79F HX  96
WILMINGTON     MOSUNNY   88  75  65 S12       29.80F HX  97
$$





USA.gov is the U.S. government's official web portal to all federal, state and local government web resources and services.